WUK7RZ EGGW-LZKZ

Flight info

Callsign WUK7RZ
Flight time 2h 13m
Altitude 35000
Route MATCH Q295 BRAIN P44 DAGGA M85 ITVIP L10 DVR UL9 KONAN DCT KOK DCT SPI DCT GUBAX DCT KOMIB DCT OKG DCT TAKOS
Aircraft A21N/M-SDE1E2E3FGIJ1J4RWXY/LB1

Departure

Time 2026-05-01 13:20
Airport London Luton Airport (EGGW)

Arrival

Time 2026-05-01 15:33
Airport Košice International Airport (LZKZ)
Time Latitude Longitude Altitude Speed Heading
2026-05-01 12:40 51.88068 -0.37383 514 ft 0 kts 342°
2026-05-01 13:00 51.88050 -0.37373 514 ft 4 kts 338°
2026-05-01 13:00 51.88029 -0.37354 514 ft 4 kts 337°
2026-05-01 13:01 51.88007 -0.37383 514 ft 4 kts 72°
2026-05-01 13:01 51.88004 -0.37399 514 ft 0 kts 72°
2026-05-01 13:09 51.88012 -0.37357 514 ft 5 kts 71°
2026-05-01 13:09 51.88023 -0.37304 514 ft 0 kts 71°
2026-05-01 13:13 51.88030 -0.37269 514 ft 15 kts 71°
2026-05-01 13:13 51.88042 -0.37201 514 ft 2 kts 91°
2026-05-01 13:13 51.88031 -0.37152 514 ft 7 kts 130°
2026-05-01 13:13 51.87979 -0.37111 514 ft 13 kts 163°
2026-05-01 13:14 51.87859 -0.37048 516 ft 19 kts 162°
2026-05-01 13:14 51.87737 -0.36983 525 ft 17 kts 162°
2026-05-01 13:14 51.87647 -0.36950 530 ft 8 kts 196°
2026-05-01 13:14 51.87619 -0.37030 527 ft 9 kts 253°
2026-05-01 13:15 51.87594 -0.37172 527 ft 14 kts 254°
2026-05-01 13:15 51.87579 -0.37335 527 ft 14 kts 276°
2026-05-01 13:15 51.87537 -0.37468 527 ft 16 kts 218°
2026-05-01 13:15 51.87489 -0.37625 528 ft 17 kts 254°
2026-05-01 13:16 51.87457 -0.37813 528 ft 18 kts 254°
2026-05-01 13:16 51.87426 -0.37983 529 ft 13 kts 245°
2026-05-01 13:16 51.87380 -0.38055 529 ft 4 kts 208°
2026-05-01 13:17 51.87374 -0.38060 528 ft 0 kts 209°
2026-05-01 13:17 51.87372 -0.38062 528 ft 1 kts 208°
2026-05-01 13:18 51.87348 -0.38082 528 ft 4 kts 205°
2026-05-01 13:18 51.87306 -0.38108 528 ft 10 kts 191°
2026-05-01 13:18 51.87242 -0.38159 529 ft 12 kts 232°
2026-05-01 13:18 51.87238 -0.38291 527 ft 13 kts 269°
2026-05-01 13:19 51.87219 -0.38308 526 ft 2 kts 122°
2026-05-01 13:19 51.87223 -0.38238 528 ft 9 kts 77°
2026-05-01 13:19 51.87355 -0.37459 528 ft 100 kts 74°
2026-05-01 13:20 51.87610 -0.35996 545 ft 165 kts 78°
2026-05-01 13:20 51.87954 -0.34226 1371 ft 170 kts 77°
2026-05-01 13:20 51.88312 -0.32355 2218 ft 178 kts 77°
2026-05-01 13:21 51.89022 -0.27953 3173 ft 223 kts 79°
2026-05-01 13:21 51.89439 -0.25378 3493 ft 250 kts 77°
2026-05-01 13:21 51.89714 -0.22517 4009 ft 264 kts 99°
2026-05-01 13:21 51.89077 -0.19768 4764 ft 263 kts 129°
2026-05-01 13:22 51.87734 -0.17811 5633 ft 260 kts 154°
2026-05-01 13:22 51.86031 -0.16977 6541 ft 256 kts 177°
2026-05-01 13:22 51.84249 -0.17008 7384 ft 258 kts 178°
2026-05-01 13:22 51.82506 -0.16277 8153 ft 262 kts 159°
2026-05-01 13:23 51.80827 -0.15044 8951 ft 267 kts 157°
2026-05-01 13:23 51.79156 -0.13791 9737 ft 270 kts 157°
2026-05-01 13:23 51.77510 -0.12289 10445 ft 278 kts 145°
2026-05-01 13:23 51.76085 -0.10017 10764 ft 300 kts 131°
2026-05-01 13:24 51.74859 -0.07172 11177 ft 315 kts 126°
2026-05-01 13:24 51.73671 -0.04174 11847 ft 319 kts 126°
2026-05-01 13:24 51.72471 -0.01146 12588 ft 322 kts 126°
2026-05-01 13:25 51.70022 0.04954 14077 ft 327 kts 127°
2026-05-01 13:25 51.68781 0.08040 14739 ft 329 kts 127°
2026-05-01 13:25 51.67526 0.11142 15392 ft 332 kts 127°
2026-05-01 13:25 51.66251 0.14283 16022 ft 336 kts 127°
2026-05-01 13:26 51.64964 0.17448 16669 ft 339 kts 127°
2026-05-01 13:26 51.63669 0.20638 17298 ft 342 kts 127°
2026-05-01 13:26 51.62361 0.23861 17917 ft 346 kts 127°
2026-05-01 13:26 51.61036 0.27121 18539 ft 349 kts 127°
2026-05-01 13:27 51.59699 0.30398 19079 ft 352 kts 127°
2026-05-01 13:27 51.58350 0.33697 19637 ft 354 kts 127°
2026-05-01 13:27 51.55623 0.40364 20736 ft 359 kts 127°
2026-05-01 13:28 51.52869 0.47091 21807 ft 364 kts 127°
2026-05-01 13:28 51.51468 0.50500 22328 ft 367 kts 127°
2026-05-01 13:29 51.48645 0.57384 23324 ft 372 kts 127°
2026-05-01 13:29 51.45844 0.64181 24219 ft 377 kts 127°
2026-05-01 13:30 51.39982 0.78338 25804 ft 386 kts 127°
2026-05-01 13:31 51.36989 0.85536 26554 ft 390 kts 127°
2026-05-01 13:31 51.32426 0.96460 27636 ft 397 kts 127°
2026-05-01 13:32 51.29331 1.03848 28343 ft 401 kts 127°
2026-05-01 13:33 51.24715 1.15144 29312 ft 409 kts 126°
2026-05-01 13:33 51.21620 1.22766 29931 ft 412 kts 126°
2026-05-01 13:34 51.18475 1.30477 30478 ft 416 kts 126°
2026-05-01 13:34 51.16161 1.39001 30972 ft 428 kts 105°
2026-05-01 13:35 51.15582 1.48534 31446 ft 435 kts 97°
2026-05-01 13:35 51.15386 1.53350 31713 ft 435 kts 97°
2026-05-01 13:35 51.14953 1.62943 32324 ft 433 kts 98°
2026-05-01 13:36 51.14722 1.67731 32593 ft 433 kts 98°
2026-05-01 13:36 51.14488 1.72445 32859 ft 433 kts 98°
2026-05-01 13:36 51.14007 1.81977 33375 ft 432 kts 98°
2026-05-01 13:37 51.13762 1.86732 33610 ft 432 kts 98°
2026-05-01 13:37 51.13515 1.91500 33847 ft 431 kts 98°
2026-05-01 13:37 51.13268 1.96259 34068 ft 431 kts 98°
2026-05-01 13:37 51.13021 2.01001 34267 ft 431 kts 98°
2026-05-01 13:38 51.12521 2.10452 34610 ft 431 kts 98°
2026-05-01 13:38 51.12263 2.15200 34773 ft 431 kts 98°
2026-05-01 13:38 51.12005 2.19957 34946 ft 430 kts 98°
2026-05-01 13:39 51.11748 2.24690 35117 ft 430 kts 98°
2026-05-01 13:39 51.11489 2.29433 35238 ft 431 kts 98°
2026-05-01 13:39 51.11227 2.34182 35256 ft 431 kts 98°
2026-05-01 13:40 51.10695 2.43684 35226 ft 430 kts 98°
2026-05-01 13:40 51.10160 2.53159 35222 ft 430 kts 98°
2026-05-01 13:41 51.09613 2.62635 35226 ft 430 kts 99°
2026-05-01 13:41 51.08296 2.71856 35225 ft 426 kts 109°
2026-05-01 13:42 51.06620 2.80911 35228 ft 427 kts 109°
2026-05-01 13:42 51.04961 2.89968 35227 ft 427 kts 109°
2026-05-01 13:43 51.03314 2.98964 35225 ft 427 kts 108°
2026-05-01 13:43 51.01651 3.08013 35229 ft 427 kts 109°
2026-05-01 13:44 50.99991 3.16989 35222 ft 427 kts 109°
2026-05-01 13:44 50.98310 3.26039 35215 ft 427 kts 109°
2026-05-01 13:45 50.96622 3.35074 35217 ft 427 kts 109°
2026-05-01 13:45 50.94929 3.44114 35219 ft 427 kts 109°
2026-05-01 13:46 50.93228 3.53149 35222 ft 427 kts 109°
2026-05-01 13:46 50.91518 3.62160 35222 ft 427 kts 109°
2026-05-01 13:47 50.89805 3.71173 35224 ft 427 kts 109°
2026-05-01 13:47 50.88083 3.80165 35230 ft 427 kts 109°
2026-05-01 13:48 50.86354 3.89159 35234 ft 427 kts 109°
2026-05-01 13:48 50.84618 3.98128 35250 ft 428 kts 109°
2026-05-01 13:49 50.82872 4.07132 35248 ft 428 kts 109°
2026-05-01 13:49 50.81128 4.16117 35252 ft 428 kts 109°
2026-05-01 13:50 50.79660 4.23606 35258 ft 428 kts 109°
2026-05-01 13:50 50.77604 4.34063 35261 ft 428 kts 109°
2026-05-01 13:51 50.75849 4.42938 35238 ft 428 kts 109°
2026-05-01 13:51 50.74359 4.50455 35243 ft 428 kts 109°
2026-05-01 13:52 50.72565 4.59445 35254 ft 429 kts 109°
2026-05-01 13:52 50.70782 4.68362 35256 ft 429 kts 109°
2026-05-01 13:53 50.68979 4.77340 35259 ft 429 kts 109°
2026-05-01 13:53 50.66271 4.90725 35264 ft 430 kts 109°
2026-05-01 13:54 50.64443 4.99689 35267 ft 430 kts 109°
2026-05-01 13:54 50.62608 5.08684 35260 ft 431 kts 109°
2026-05-01 13:55 50.60765 5.17671 35264 ft 431 kts 109°
2026-05-01 13:55 50.58910 5.26642 35257 ft 431 kts 109°
2026-05-01 13:56 50.57059 5.35592 35259 ft 432 kts 109°
2026-05-01 13:56 50.55190 5.44580 35257 ft 432 kts 109°
2026-05-01 13:57 50.53306 5.53578 35263 ft 432 kts 109°
2026-05-01 13:57 50.51502 5.62597 35265 ft 434 kts 103°
2026-05-01 13:58 50.50586 5.71969 35277 ft 442 kts 99°
2026-05-01 13:58 50.49758 5.81558 35267 ft 443 kts 99°
2026-05-01 13:59 50.48894 5.91180 35270 ft 444 kts 99°
2026-05-01 13:59 50.48016 6.00784 35276 ft 445 kts 99°
2026-05-01 14:00 50.47137 6.10434 35275 ft 446 kts 99°
2026-05-01 14:00 50.46251 6.20032 35272 ft 447 kts 99°
2026-05-01 14:01 50.45344 6.29742 35277 ft 447 kts 99°
2026-05-01 14:01 50.44584 6.37769 35275 ft 448 kts 99°
2026-05-01 14:02 50.43507 6.49064 35279 ft 448 kts 99°
2026-05-01 14:02 50.42585 6.58664 35279 ft 448 kts 99°
2026-05-01 14:03 50.41660 6.68261 35292 ft 449 kts 99°
2026-05-01 14:03 50.40714 6.77924 35312 ft 448 kts 99°
2026-05-01 14:04 50.39761 6.87583 35323 ft 448 kts 99°
2026-05-01 14:04 50.38795 6.97247 35327 ft 448 kts 99°
2026-05-01 14:05 50.37825 7.06911 35337 ft 449 kts 99°
2026-05-01 14:05 50.36850 7.16563 35344 ft 448 kts 99°
2026-05-01 14:06 50.35867 7.26210 35337 ft 449 kts 99°
2026-05-01 14:06 50.34869 7.35853 35334 ft 449 kts 99°
2026-05-01 14:07 50.33867 7.45508 35339 ft 450 kts 99°
2026-05-01 14:08 50.32345 7.59931 35340 ft 450 kts 99°
2026-05-01 14:08 50.31319 7.69537 35340 ft 450 kts 99°
2026-05-01 14:09 50.30288 7.79210 35342 ft 450 kts 99°
2026-05-01 14:09 50.29234 7.88865 35348 ft 451 kts 99°
2026-05-01 14:10 50.28364 7.98575 35340 ft 450 kts 97°
2026-05-01 14:10 50.27561 8.08284 35343 ft 450 kts 97°
2026-05-01 14:11 50.26744 8.18007 35342 ft 450 kts 97°
2026-05-01 14:11 50.25514 8.32516 35338 ft 450 kts 97°
2026-05-01 14:12 50.24674 8.42200 35331 ft 450 kts 97°
2026-05-01 14:12 50.23820 8.51886 35335 ft 449 kts 97°
2026-05-01 14:13 50.23120 8.59922 35334 ft 448 kts 96°
2026-05-01 14:13 50.22122 8.71145 35336 ft 448 kts 97°
2026-05-01 14:14 50.21255 8.80780 35338 ft 448 kts 97°
2026-05-01 14:14 50.20383 8.90338 35334 ft 447 kts 97°
2026-05-01 14:15 50.19504 8.99943 35341 ft 447 kts 97°
2026-05-01 14:15 50.18610 9.09567 35352 ft 447 kts 97°
2026-05-01 14:16 50.17712 9.19146 35353 ft 446 kts 97°
2026-05-01 14:16 50.16807 9.28724 35356 ft 446 kts 97°
2026-05-01 14:17 50.15894 9.38308 35355 ft 446 kts 97°
2026-05-01 14:17 50.14981 9.47798 35351 ft 445 kts 97°
2026-05-01 14:18 50.14060 9.57267 35354 ft 445 kts 97°
2026-05-01 14:18 50.13275 9.65250 35362 ft 444 kts 97°
2026-05-01 14:19 50.12183 9.76306 35368 ft 444 kts 97°
2026-05-01 14:19 50.11243 9.85807 35371 ft 444 kts 97°
2026-05-01 14:20 50.09810 10.00035 35378 ft 443 kts 97°
2026-05-01 14:21 50.08847 10.09509 35381 ft 442 kts 97°
2026-05-01 14:21 50.07877 10.18965 35382 ft 442 kts 97°
2026-05-01 14:22 50.07346 10.33225 35387 ft 440 kts 88°
2026-05-01 14:22 50.07404 10.42733 35393 ft 439 kts 88°
2026-05-01 14:23 50.07447 10.52145 35389 ft 439 kts 88°
2026-05-01 14:23 50.07475 10.61636 35397 ft 438 kts 88°
2026-05-01 14:24 50.07490 10.71115 35393 ft 438 kts 88°
2026-05-01 14:24 50.07482 10.80593 35395 ft 438 kts 88°
2026-05-01 14:25 50.07483 10.90071 35390 ft 437 kts 88°
2026-05-01 14:25 50.07494 10.99536 35391 ft 437 kts 88°
2026-05-01 14:26 50.07465 11.13720 35396 ft 437 kts 89°
2026-05-01 14:27 50.07428 11.23116 35399 ft 436 kts 88°
2026-05-01 14:27 50.07399 11.32546 35404 ft 436 kts 88°
2026-05-01 14:28 50.07357 11.46651 35404 ft 436 kts 89°
2026-05-01 14:28 50.07308 11.56077 35410 ft 436 kts 89°
2026-05-01 14:29 50.07251 11.65512 35409 ft 435 kts 89°
2026-05-01 14:30 50.07111 11.84345 35412 ft 435 kts 89°
2026-05-01 14:31 50.06982 11.98470 35409 ft 434 kts 89°
2026-05-01 14:31 50.06890 12.07802 35412 ft 434 kts 89°
2026-05-01 14:32 50.06790 12.17192 35414 ft 434 kts 89°
2026-05-01 14:32 50.06673 12.26584 35414 ft 433 kts 89°
2026-05-01 14:33 50.06575 12.34379 35416 ft 433 kts 89°
2026-05-01 14:33 50.05846 12.45230 35413 ft 436 kts 101°
2026-05-01 14:34 50.04429 12.54414 35415 ft 436 kts 101°
2026-05-01 14:34 50.03019 12.63587 35410 ft 436 kts 101°
2026-05-01 14:35 50.01628 12.72708 35402 ft 426 kts 101°
2026-05-01 14:35 50.00264 12.81610 35408 ft 426 kts 101°
2026-05-01 14:36 49.98876 12.90619 35410 ft 426 kts 101°
2026-05-01 14:36 49.97494 12.99557 35408 ft 426 kts 101°
2026-05-01 14:37 49.96124 13.08428 35413 ft 425 kts 101°
2026-05-01 14:37 49.94728 13.17366 35411 ft 425 kts 101°
2026-05-01 14:38 49.93553 13.24827 35413 ft 425 kts 101°
2026-05-01 14:38 49.92147 13.33652 35413 ft 425 kts 101°
2026-05-01 14:39 49.90739 13.42551 35413 ft 424 kts 101°
2026-05-01 14:39 49.89321 13.51433 35414 ft 424 kts 101°
2026-05-01 14:40 49.87893 13.60310 35408 ft 424 kts 101°
2026-05-01 14:40 49.86457 13.69178 35409 ft 424 kts 101°
2026-05-01 14:41 49.85007 13.78029 35404 ft 424 kts 101°
2026-05-01 14:41 49.83555 13.86879 35407 ft 423 kts 101°
2026-05-01 14:42 49.82117 13.95664 35403 ft 423 kts 101°
2026-05-01 14:42 49.80657 14.04547 35408 ft 423 kts 101°
2026-05-01 14:43 49.79205 14.13299 35397 ft 423 kts 101°
2026-05-01 14:43 49.77733 14.22131 35390 ft 423 kts 100°
2026-05-01 14:44 49.76259 14.30916 35404 ft 422 kts 100°
2026-05-01 14:44 49.74045 14.44048 35411 ft 422 kts 100°
2026-05-01 14:45 49.71794 14.57296 35418 ft 431 kts 100°
2026-05-01 14:46 49.70249 14.66324 35403 ft 436 kts 101°
2026-05-01 14:46 49.67910 14.79904 35401 ft 436 kts 100°
2026-05-01 14:47 49.66348 14.88908 35410 ft 436 kts 101°
2026-05-01 14:48 49.63985 15.02453 35397 ft 436 kts 101°
2026-05-01 14:48 49.61611 15.15934 35396 ft 435 kts 101°
2026-05-01 14:49 49.58422 15.33931 35393 ft 435 kts 100°
2026-05-01 14:50 49.55204 15.51888 35392 ft 435 kts 100°
2026-05-01 14:51 49.52774 15.65344 35385 ft 435 kts 100°
2026-05-01 14:52 49.50329 15.78764 35386 ft 434 kts 100°
2026-05-01 14:53 49.47872 15.92183 35382 ft 434 kts 100°
2026-05-01 14:53 49.46233 16.01056 35375 ft 434 kts 100°
2026-05-01 14:54 49.44582 16.09961 35376 ft 433 kts 100°
2026-05-01 14:54 49.42931 16.18820 35370 ft 433 kts 100°
2026-05-01 14:55 49.41257 16.27725 35367 ft 433 kts 101°
2026-05-01 14:55 49.39565 16.36603 35357 ft 433 kts 101°
2026-05-01 14:56 49.37879 16.45488 35347 ft 433 kts 100°
2026-05-01 14:56 49.36208 16.54304 35349 ft 433 kts 100°
2026-05-01 14:57 49.34532 16.63161 35344 ft 433 kts 100°
2026-05-01 14:57 49.31984 16.76465 35343 ft 433 kts 101°
2026-05-01 14:58 49.30286 16.85274 35344 ft 433 kts 100°
2026-05-01 14:58 49.28578 16.94125 35345 ft 433 kts 101°
2026-05-01 14:59 49.26853 17.02973 35342 ft 433 kts 101°
2026-05-01 14:59 49.25123 17.11800 35334 ft 433 kts 101°
2026-05-01 15:00 49.22493 17.25016 35330 ft 432 kts 101°
2026-05-01 15:01 49.20771 17.33815 35327 ft 432 kts 101°
2026-05-01 15:01 49.19018 17.42613 35329 ft 431 kts 101°
2026-05-01 15:02 49.17277 17.51326 35326 ft 431 kts 101°
2026-05-01 15:02 49.15504 17.60084 35324 ft 431 kts 101°
2026-05-01 15:03 49.13739 17.68835 35324 ft 431 kts 101°
2026-05-01 15:03 49.11983 17.77516 35328 ft 430 kts 101°
2026-05-01 15:04 49.10230 17.86250 35330 ft 430 kts 101°
2026-05-01 15:04 49.08455 17.94970 35333 ft 430 kts 101°
2026-05-01 15:05 49.06685 18.03637 35331 ft 430 kts 101°
2026-05-01 15:05 49.04893 18.12332 35336 ft 430 kts 101°
2026-05-01 15:06 49.03099 18.21006 35325 ft 429 kts 101°
2026-05-01 15:06 49.01294 18.29683 35325 ft 429 kts 101°
2026-05-01 15:07 48.99487 18.38349 35327 ft 429 kts 101°
2026-05-01 15:07 48.97676 18.47006 35320 ft 427 kts 101°
2026-05-01 15:08 48.95868 18.55581 35325 ft 423 kts 101°
2026-05-01 15:08 48.94100 18.63889 35107 ft 408 kts 100°
2026-05-01 15:08 48.93247 18.67926 34661 ft 404 kts 100°
2026-05-01 15:09 48.92375 18.72040 34131 ft 402 kts 100°
2026-05-01 15:09 48.91531 18.76022 33570 ft 399 kts 100°
2026-05-01 15:09 48.90682 18.80014 33038 ft 396 kts 100°
2026-05-01 15:09 48.89833 18.83984 32516 ft 392 kts 100°
2026-05-01 15:10 48.88989 18.87904 32001 ft 389 kts 100°
2026-05-01 15:10 48.87320 18.95660 30994 ft 382 kts 100°
2026-05-01 15:10 48.86500 18.99478 30532 ft 378 kts 100°
2026-05-01 15:11 48.85688 19.03260 30000 ft 374 kts 100°
2026-05-01 15:11 48.84077 19.10704 28971 ft 367 kts 101°
2026-05-01 15:11 48.83285 19.14310 28486 ft 363 kts 101°
2026-05-01 15:12 48.82477 19.17969 28027 ft 358 kts 101°
2026-05-01 15:12 48.81187 19.23857 27310 ft 350 kts 100°
2026-05-01 15:12 48.80186 19.28472 26701 ft 345 kts 100°
2026-05-01 15:13 48.77968 19.38688 25428 ft 337 kts 100°
2026-05-01 15:14 48.76499 19.45376 24549 ft 332 kts 100°
2026-05-01 15:14 48.75769 19.48688 24123 ft 330 kts 100°
2026-05-01 15:14 48.74318 19.55260 23191 ft 327 kts 100°
2026-05-01 15:15 48.72883 19.61738 22281 ft 322 kts 100°
2026-05-01 15:15 48.71453 19.68175 21149 ft 322 kts 100°
2026-05-01 15:16 48.70031 19.74527 20266 ft 314 kts 100°
2026-05-01 15:16 48.68637 19.80761 19493 ft 323 kts 101°
2026-05-01 15:17 48.67201 19.87180 18725 ft 335 kts 102°
2026-05-01 15:18 48.64971 19.97049 17383 ft 329 kts 102°
2026-05-01 15:18 48.64242 20.00289 16959 ft 327 kts 102°
2026-05-01 15:19 48.62050 20.09948 15864 ft 322 kts 102°
2026-05-01 15:19 48.60592 20.16312 15140 ft 318 kts 102°
2026-05-01 15:19 48.59868 20.19455 14790 ft 316 kts 102°
2026-05-01 15:20 48.58434 20.25724 14017 ft 315 kts 101°
2026-05-01 15:20 48.57956 20.28906 13622 ft 308 kts 93°
2026-05-01 15:20 48.57628 20.32086 13211 ft 307 kts 93°
2026-05-01 15:21 48.57286 20.35262 12811 ft 304 kts 93°
2026-05-01 15:21 48.56950 20.38356 12515 ft 295 kts 93°
2026-05-01 15:21 48.56619 20.41409 12091 ft 294 kts 93°
2026-05-01 15:21 48.56290 20.44449 11679 ft 293 kts 93°
2026-05-01 15:22 48.55630 20.50519 10923 ft 293 kts 94°
2026-05-01 15:22 48.55410 20.52537 10676 ft 294 kts 94°
2026-05-01 15:22 48.55081 20.55578 10316 ft 293 kts 94°
2026-05-01 15:23 48.54640 20.59607 9878 ft 291 kts 94°
2026-05-01 15:23 48.54314 20.62525 9617 ft 281 kts 94°
2026-05-01 15:23 48.53999 20.65410 9206 ft 278 kts 94°
2026-05-01 15:23 48.53687 20.68291 8758 ft 278 kts 94°
2026-05-01 15:24 48.53374 20.71156 8361 ft 277 kts 95°
2026-05-01 15:24 48.53057 20.74020 7992 ft 276 kts 95°
2026-05-01 15:24 48.52844 20.75950 7755 ft 275 kts 95°
2026-05-01 15:24 48.52530 20.78794 7408 ft 275 kts 95°
2026-05-01 15:25 48.52215 20.81626 7103 ft 270 kts 95°
2026-05-01 15:25 48.51910 20.84343 6914 ft 261 kts 95°
2026-05-01 15:25 48.51609 20.87000 6703 ft 253 kts 95°
2026-05-01 15:25 48.51315 20.89604 6319 ft 250 kts 95°
2026-05-01 15:26 48.51027 20.92177 5902 ft 248 kts 96°
2026-05-01 15:26 48.50737 20.94742 5495 ft 247 kts 96°
2026-05-01 15:26 48.50451 20.97278 5187 ft 241 kts 96°
2026-05-01 15:26 48.50174 20.99736 4938 ft 234 kts 96°
2026-05-01 15:27 48.49903 21.02134 4582 ft 231 kts 96°
2026-05-01 15:27 48.49632 21.04522 4204 ft 230 kts 96°
2026-05-01 15:27 48.49361 21.06882 3906 ft 226 kts 97°
2026-05-01 15:28 48.48845 21.11311 3541 ft 203 kts 96°
2026-05-01 15:28 48.48614 21.13340 3296 ft 195 kts 96°
2026-05-01 15:28 48.48447 21.15374 3101 ft 192 kts 89°
2026-05-01 15:29 48.49720 21.18316 2986 ft 177 kts 22°
2026-05-01 15:29 48.50908 21.18765 3002 ft 176 kts 13°
2026-05-01 15:29 48.53156 21.19534 3000 ft 155 kts 13°
2026-05-01 15:30 48.55249 21.20261 2761 ft 154 kts 13°
2026-05-01 15:31 48.59219 21.21645 1943 ft 128 kts 13°
2026-05-01 15:31 48.60960 21.22253 1600 ft 130 kts 14°
2026-05-01 15:32 48.62681 21.22876 1210 ft 128 kts 12°
2026-05-01 15:32 48.64396 21.23460 885 ft 128 kts 12°
2026-05-01 15:33 48.66629 21.24232 764 ft 41 kts 13°
2026-05-01 15:34 48.67181 21.24426 766 ft 11 kts 11°